Location: Huberhof
(49.2050°N, 7.4980°E)
Time: 01:11:08
(UTC+00:00)

YAOGAN 1 - Pass Details

Date: 29 October 2020
Orbit: 618 x 620 km, 97.9° (Epoch: 26 November)

Event Time Altitude Azimuth Distance (km) Brightness Sun altitude
Rises 17:15:34 0° 139° (SE) 2,889 5.7 -10.7°
Reaches altitude 10° 17:17:54 10° 130° (SE) 1,987 4.8 -11.1°
Maximum altitude 17:21:46 33° 67° (ENE) 1,049 3.2 -11.7°
Drops below altitude 10° 17:25:40 10° 3° (N) 2,000 5.1 -12.3°
Sets 17:28:00 0° 354° (N) 2,910 6.0 -12.7°
